weather.gov     
National Weather Service

Terminal Aerodrome Forecast
NWS Homepage
This page is being discontinued on March 12, 2014.
The same data is available at this site. Please update your bookmarks.
Thank you, and we apologize for the inconvenience.
Please send an email to SR-SRH.Webmaster@noaa.gov with any concerns.


Current Version
Previous Version:    01  02  03  04  05  06  07  08  09  10  11  12  13  14  15  16  17  18  19  20  21  22  23  24  25  26  27  28  29  30  
   31  
[Printable]
685
FTUS44 KLCH 301500 AAB
TAFAEX
TAF AMD
KAEX 301506Z 3015/3112 VRB05KT 5SM SHRA FEW009 OVC025
      TEMPO 3015/3017 2SM SHRA SCT017 OVC045
     FM301700 17008KT P6SM TSRA SCT014 BKN025CB
      TEMPO 3017/3021 4SM SHRA BKN030 OVC045
     FM302100 18009KT P6SM SCT013 OVC025
      TEMPO 3021/3024 P6SM -TSRA BKN015CB
     FM310000 17007KT P6SM SCT050 BKN250=


U.S. Dept. of Commerce
NOAA National Weather Service
1325 East West Highway
Silver Spring, MD 20910
E-mail: w-nws.webmaster@noaa.gov
Page last modified: May 16, 2007
NATIONAL WEATHER SERVICE: for Safety, for Work, for Fun - FOR LIFE